When you browse on this site, cookies collect data to enhance your experience and personalize the content and advertising you see.
Visit our Privacy Policy to learn more. By continuing to use the site, you agree to this use of cookies and data.
  • In Slovakia
  • List of Countries
  • For 7 days
  • Water Temperature
  • Satellite Maps
  • Weather Map
  • Weather Widgets
  • user-avatar
    Login

    Hourly Weather Oran

    Today, 20 November, Tuesday

    Time Temperature Precipitation Wind Pressure Humidity
    00:00 +15°C° 0.3 mm 9 mps 744 mmHg 65%
    01:00 +13°C° 0.2 mm 9 mps 744 mmHg 65%
    02:00 +13°C° 0.2 mm 9 mps 744 mmHg 64%
    03:00 +13°C° 0.2 mm 8 mps 744 mmHg 64%
    04:00 +13°C° 0.1 mm 8 mps 744 mmHg 63%
    05:00 +14°C° 0.1 mm 7 mps 744 mmHg 62%
    06:00 +12°C° 0.1 mm 7 mps 745 mmHg 61%
    07:00 +15°C° 0 mm 7 mps 745 mmHg 54%
    08:00 +16°C° 0 mm 7 mps 745 mmHg 47%
    09:00 +17°C° 0 mm 7 mps 746 mmHg 40%
    10:00 +18°C° 0 mm 8 mps 746 mmHg 42%
    11:00 +18°C° 0 mm 9 mps 746 mmHg 44%
    12:00 +19°C° 0 mm 11 mps 745 mmHg 45%
    13:00 +19°C° 0 mm 11 mps 745 mmHg 44%
    14:00 +21°C° 0 mm 11 mps 745 mmHg 43%
    15:00 +21°C° 0 mm 12 mps 745 mmHg 42%
    16:00 +19°C° 0 mm 11 mps 746 mmHg 50%
    17:00 +18°C° 0 mm 11 mps 746 mmHg 58%
    18:00 +17°C° 0 mm 10 mps 747 mmHg 66%
    19:00 +16°C° 0 mm 10 mps 748 mmHg 68%
    20:00 +16°C° 0 mm 9 mps 749 mmHg 70%
    21:00 +16°C° 0 mm 9 mps 749 mmHg 73%
    22:00 +15°C° 0 mm 8 mps 750 mmHg 73%
    23:00 +15°C° 0 mm 7 mps 750 mmHg 74%

    Tomorrow, 21 November, Wednesday

    Time Temperature Precipitation Wind Pressure Humidity
    00:00 +15°C° 0 mm 6 mps 750 mmHg 74%
    01:00 +15°C° 0 mm 6 mps 750 mmHg 72%
    02:00 +15°C° 0 mm 5 mps 750 mmHg 69%
    03:00 +14°C° 0 mm 4 mps 750 mmHg 67%
    04:00 +14°C° 0 mm 4 mps 750 mmHg 65%
    05:00 +14°C° 0 mm 4 mps 750 mmHg 64%
    06:00 +14°C° 0 mm 3 mps 751 mmHg 62%
    07:00 +16°C° 0 mm 3 mps 751 mmHg 57%
    08:00 +18°C° 0 mm 3 mps 751 mmHg 52%
    09:00 +19°C° 0 mm 3 mps 752 mmHg 47%
    10:00 +20°C° 0 mm 2 mps 752 mmHg 41%
    11:00 +23°C° 0 mm 2 mps 751 mmHg 36%
    12:00 +24°C° 0 mm 2 mps 751 mmHg 31%
    13:00 +24°C° 0 mm 2 mps 751 mmHg 30%
    14:00 +25°C° 0 mm 2 mps 751 mmHg 29%
    15:00 +25°C° 0 mm 2 mps 750 mmHg 29%
    16:00 +23°C° 0 mm 2 mps 750 mmHg 34%
    17:00 +21°C° 0 mm 2 mps 751 mmHg 40%
    18:00 +19°C° 0 mm 2 mps 751 mmHg 46%
    19:00 +19°C° 0 mm 2 mps 751 mmHg 47%
    20:00 +18°C° 0 mm 2 mps 751 mmHg 49%
    21:00 +18°C° 0 mm 2 mps 752 mmHg 50%
    22:00 +18°C° 0 mm 2 mps 752 mmHg 49%
    23:00 +18°C° 0 mm 2 mps 752 mmHg 48%

    Day after tomorrow, 22 November, Thursday

    Time Temperature Precipitation Wind Pressure Humidity
    00:00 +18°C° 0 mm 2 mps 752 mmHg 47%
    01:00 +17°C° 0 mm 2 mps 752 mmHg 48%
    02:00 +17°C° 0 mm 2 mps 752 mmHg 50%
    03:00 +18°C° 0 mm 1 mps 752 mmHg 51%
    04:00 +16°C° 0 mm 1 mps 752 mmHg 54%
    05:00 +16°C° 0 mm 1 mps 752 mmHg 56%
    06:00 +15°C° 0 mm 1 mps 752 mmHg 59%
    07:00 +18°C° 0 mm 1 mps 752 mmHg 55%
    08:00 +19°C° 0 mm 1 mps 753 mmHg 50%
    09:00 +20°C° 0 mm 1 mps 753 mmHg 46%
    10:00 +21°C° 0 mm 1 mps 753 mmHg 42%
    11:00 +21°C° 0 mm 2 mps 752 mmHg 38%
    12:00 +24°C° 0 mm 2 mps 752 mmHg 34%
    13:00 +24°C° 0 mm 2 mps 752 mmHg 35%
    14:00 +24°C° 0 mm 3 mps 751 mmHg 35%
    15:00 +23°C° 0 mm 4 mps 751 mmHg 36%
    16:00 +22°C° 0 mm 4 mps 751 mmHg 41%
    17:00 +21°C° 0 mm 4 mps 751 mmHg 46%
    18:00 +19°C° 0 mm 4 mps 751 mmHg 51%
    19:00 +19°C° 0 mm 4 mps 751 mmHg 50%
    20:00 +19°C° 0 mm 3 mps 752 mmHg 49%
    21:00 +19°C° 0 mm 3 mps 752 mmHg 48%
    22:00 +18°C° 0 mm 3 mps 752 mmHg 50%
    23:00 +18°C° 0 mm 3 mps 752 mmHg 53%

    23 November, Friday

    Time Temperature Precipitation Wind Pressure Humidity
    00:00 +17°C° 0 mm 3 mps 752 mmHg 56%
    01:00 +17°C° 0 mm 2 mps 752 mmHg 57%
    02:00 +17°C° 0 mm 2 mps 751 mmHg 57%
    03:00 +16°C° 0 mm 2 mps 751 mmHg 58%
    04:00 +16°C° 0 mm 2 mps 751 mmHg 59%
    05:00 +16°C° 0 mm 1 mps 751 mmHg 61%
    06:00 +15°C° 0 mm 1 mps 751 mmHg 62%
    07:00 +17°C° 0 mm 2 mps 751 mmHg 55%
    08:00 +18°C° 0 mm 2 mps 751 mmHg 48%
    09:00 +20°C° 0 mm 2 mps 751 mmHg 41%
    10:00 +21°C° 0 mm 2 mps 751 mmHg 38%
    11:00 +24°C° 0 mm 3 mps 751 mmHg 34%
    12:00 +25°C° 0 mm 3 mps 751 mmHg 30%
    13:00 +25°C° 0 mm 4 mps 750 mmHg 34%
    14:00 +23°C° 0 mm 4 mps 750 mmHg 38%
    15:00 +23°C° 0 mm 5 mps 750 mmHg 42%
    16:00 +21°C° 0 mm 4 mps 750 mmHg 52%
    17:00 +19°C° 0 mm 4 mps 751 mmHg 62%
    18:00 +18°C° 0 mm 3 mps 751 mmHg 72%
    19:00 +18°C° 0 mm 3 mps 752 mmHg 74%
    20:00 +17°C° 0 mm 3 mps 752 mmHg 76%
    21:00 +17°C° 0 mm 3 mps 753 mmHg 77%
    22:00 +17°C° 0 mm 3 mps 753 mmHg 78%
    23:00 +17°C° 0 mm 2 mps 753 mmHg 78%

    24 November, Saturday

    Time Temperature Precipitation Wind Pressure Humidity
    00:00 +17°C° 0 mm 2 mps 753 mmHg 78%
    01:00 +16°C° 0 mm 2 mps 753 mmHg 80%
    02:00 +16°C° 0 mm 2 mps 752 mmHg 82%
    03:00 +16°C° 0 mm 2 mps 752 mmHg 84%
    04:00 +16°C° 0 mm 2 mps 752 mmHg 84%
    05:00 +16°C° 0 mm 1 mps 752 mmHg 85%
    06:00 +16°C° 0 mm 1 mps 752 mmHg 85%
    07:00 +16°C° 0.1 mm 2 mps 753 mmHg 84%
    08:00 +16°C° 0.1 mm 2 mps 753 mmHg 82%
    09:00 +17°C° 0.1 mm 2 mps 753 mmHg 81%
    10:00 +17°C° 0.2 mm 2 mps 753 mmHg 80%
    11:00 +17°C° 0.2 mm 2 mps 753 mmHg 79%
    12:00 +17°C° 0.2 mm 2 mps 753 mmHg 77%
    13:00 +17°C° 0.2 mm 3 mps 753 mmHg 78%
    14:00 +17°C° 0.2 mm 3 mps 752 mmHg 79%
    15:00 +17°C° 0.2 mm 3 mps 752 mmHg 80%
    16:00 +17°C° 0.4 mm 3 mps 752 mmHg 82%
    17:00 +16°C° 0.4 mm 3 mps 752 mmHg 84%
    18:00 +16°C° 0.4 mm 3 mps 753 mmHg 86%
    19:00 +16°C° 0.3 mm 3 mps 753 mmHg 86%
    20:00 +15°C° 0.3 mm 4 mps 753 mmHg 85%
    21:00 +15°C° 0.3 mm 4 mps 753 mmHg 85%
    22:00 +15°C° 0.1 mm 4 mps 753 mmHg 85%
    23:00 +14°C° 0.1 mm 4 mps 753 mmHg 85%

    25 November, Sunday

    Time Temperature Precipitation Wind Pressure Humidity
    00:00 +14°C° 0.1 mm 5 mps 754 mmHg 85%
    01:00 +14°C° 0.1 mm 5 mps 754 mmHg 85%
    02:00 +14°C° 0.1 mm 5 mps 754 mmHg 85%
    03:00 +14°C° 0.1 mm 5 mps 754 mmHg 85%
    04:00 +14°C° 0.2 mm 5 mps 754 mmHg 83%
    05:00 +14°C° 0.2 mm 5 mps 754 mmHg 82%
    06:00 +14°C° 0.2 mm 5 mps 754 mmHg 80%
    07:00 +14°C° 0 mm 6 mps 755 mmHg 76%
    08:00 +15°C° 0 mm 6 mps 755 mmHg 73%
    09:00 +16°C° 0 mm 7 mps 755 mmHg 69%
    10:00 +17°C° 0 mm 7 mps 755 mmHg 66%
    11:00 +17°C° 0 mm 8 mps 755 mmHg 63%
    12:00 +18°C° 0 mm 8 mps 755 mmHg 59%
    13:00 +18°C° 0 mm 8 mps 755 mmHg 60%
    14:00 +18°C° 0 mm 8 mps 754 mmHg 60%
    15:00 +18°C° 0 mm 8 mps 754 mmHg 61%
    16:00 +17°C° 0 mm 7 mps 754 mmHg 65%
    17:00 +16°C° 0 mm 6 mps 755 mmHg 69%
    18:00 +15°C° 0 mm 5 mps 755 mmHg 73%
    19:00 +15°C° 0 mm 5 mps 755 mmHg 72%
    20:00 +15°C° 0 mm 5 mps 755 mmHg 71%
    21:00 +15°C° 0 mm 5 mps 755 mmHg 70%
    22:00 +15°C° 0 mm 5 mps 755 mmHg 68%
    23:00 +15°C° 0 mm 5 mps 755 mmHg 65%
    Show more